| time (UTC) | temp F | wind direction | speed MPH | gust MPH | rain 1hr in | rain 24hr in | rain mn in | humidity % | barometer mb |
| 20260505070051 | 36 | 73 | 0.0 | 0.0 | 0.00 | 0.00 | 0.00 | 93 | 1014.9 |
| 20260505065545 | 36 | 73 | 0.0 | 0.0 | 0.00 | 0.00 | 0.00 | 93 | 1014.9 |
| 20260505065038 | 36 | 73 | 0.0 | 0.0 | 0.00 | 0.00 | 0.00 | 93 | 1014.9 |
| 20260505064803 | 36 | 73 | 0.0 | 0.0 | 0.00 | 0.00 | 0.00 | 93 | 1014.9 |
| 20260505064027 | 36 | 73 | 0.0 | 0.0 | 0.00 | 0.00 | 0.00 | 93 | 1015.1 |
| 20260505063526 | 36 | 73 | 0.0 | 4.0 | 0.00 | 0.00 | 0.00 | 93 | 1015.1 |
| 20260505063020 | 36 | 73 | 0.0 | 4.0 | 0.00 | 0.00 | 0.00 | 93 | 1015.2 |
| 20260505062739 | 36 | 73 | 1.0 | 4.0 | 0.00 | 0.00 | 0.00 | 93 | 1015.2 |
| 20260505062002 | 36 | 73 | 2.0 | 4.0 | 0.00 | 0.00 | 0.00 | 93 | 1015.2 |
| 20260505061457 | 36 | 83 | 2.0 | 4.0 | 0.00 | 0.00 | 0.00 | 93 | 1015.1 |
| 20260505060951 | 36 | 78 | 1.0 | 4.0 | 0.00 | 0.00 | 0.00 | 93 | 1015.1 |
| 20260505060444 | 36 | 62 | 0.0 | 3.0 | 0.00 | 0.00 | 0.00 | 93 | 1015.3 |
| 20260505055944 | 36 | 62 | 1.0 | 4.0 | 0.00 | 0.00 | 0.00 | 93 | 1015.3 |
| 20260505055434 | 36 | 71 | 2.0 | 5.0 | 0.00 | 0.00 | 0.00 | 93 | 1015.2 |
| 20260505054942 | 36 | 44 | 2.0 | 5.0 | 0.00 | 0.00 | 0.00 | 93 | 1015.3 |
| 20260505054421 | 36 | 98 | 2.0 | 5.0 | 0.00 | 0.00 | 0.00 | 92 | 1015.3 |
| 20260505053915 | 36 | 53 | 3.0 | 6.0 | 0.00 | 0.00 | 0.00 | 92 | 1015.5 |
| 20260505053410 | 36 | 97 | 2.0 | 6.0 | 0.00 | 0.00 | 0.00 | 92 | 1015.5 |
| 20260505052904 | 36 | 350 | 2.0 | 7.0 | 0.00 | 0.00 | 0.00 | 92 | 1015.5 |
| 20260505052629 | 36 | 28 | 3.0 | 7.0 | 0.00 | 0.00 | 0.00 | 92 | 1015.3 |
| 20260505051852 | 36 | 79 | 2.0 | 7.0 | 0.00 | 0.00 | 0.00 | 92 | 1015.3 |
| 20260505051618 | 36 | 84 | 3.0 | 8.0 | 0.00 | 0.00 | 0.00 | 92 | 1015.5 |
| 20260505050841 | 37 | 57 | 4.0 | 8.0 | 0.00 | 0.00 | 0.00 | 91 | 1015.2 |
| 20260505050339 | 37 | 48 | 3.0 | 7.0 | 0.00 | 0.00 | 0.00 | 91 | 1015.2 |
| 20260505050111 | 37 | 78 | 3.0 | 5.0 | 0.00 | 0.00 | 0.00 | 91 | 1015.3 |
| 20260505041328 | 36 | 36 | 0.0 | 3.0 | 0.00 | 0.00 | 0.00 | 91 | 1015.1 |
| 20260505040829 | 36 | 36 | 0.0 | 3.0 | 0.00 | 0.00 | 0.00 | 91 | 1015.1 |
| 20260505035830 | 36 | 57 | 2.0 | 5.0 | 0.00 | 0.00 | 0.00 | 91 | 1014.8 |
| 20260505035325 | 36 | 57 | 3.0 | 5.0 | 0.00 | 0.00 | 0.00 | 91 | 1014.8 |
| 20260505034825 | 36 | 9 | 3.0 | 5.0 | 0.00 | 0.00 | 0.00 | 91 | 1014.9 |
| 20260505034324 | 36 | 28 | 3.0 | 7.0 | 0.00 | 0.00 | 0.00 | 91 | 1014.8 |
| 20260505033825 | 36 | 62 | 3.0 | 7.0 | 0.00 | 0.00 | 0.00 | 91 | 1014.9 |
| 20260505033324 | 36 | 84 | 1.0 | 5.0 | 0.00 | 0.00 | 0.00 | 91 | 1014.9 |
| 20260505032824 | 36 | 63 | 2.0 | 5.0 | 0.00 | 0.00 | 0.00 | 91 | 1015.1 |
| 20260505032325 | 36 | 69 | 2.0 | 5.0 | 0.00 | 0.00 | 0.00 | 90 | 1014.7 |
| 20260505031824 | 37 | 67 | 2.0 | 6.0 | 0.00 | 0.00 | 0.00 | 90 | 1014.7 |
| 20260505031325 | 37 | 0 | 3.0 | 9.0 | 0.00 | 0.00 | 0.00 | 90 | 1014.7 |
| 20260505030825 | 37 | 40 | 3.0 | 9.0 | 0.00 | 0.00 | 0.00 | 90 | 1014.8 |
| 20260505030326 | 37 | 61 | 2.0 | 7.0 | 0.00 | 0.00 | 0.00 | 90 | 1015.1 |
| 20260505025825 | 37 | 70 | 1.0 | 5.0 | 0.00 | 0.00 | 0.00 | 90 | 1015.2 |
| 20260505025327 | 37 | 65 | 1.0 | 5.0 | 0.00 | 0.00 | 0.00 | 90 | 1015.2 |
| 20260505024825 | 37 | 14 | 2.0 | 5.0 | 0.00 | 0.00 | 0.00 | 90 | 1015.1 |
| 20260505024322 | 37 | 67 | 3.0 | 7.0 | 0.00 | 0.00 | 0.00 | 90 | 1014.7 |
| 20260505023321 | 37 | 58 | 4.0 | 8.0 | 0.00 | 0.00 | 0.00 | 90 | 1014.5 |
| 20260505022825 | 37 | 80 | 4.0 | 8.0 | 0.00 | 0.00 | 0.00 | 90 | 1014.4 |
| 20260505022319 | 37 | 71 | 3.0 | 8.0 | 0.00 | 0.00 | 0.00 | 89 | 1014.4 |
| 20260505022044 | 37 | 61 | 3.0 | 8.0 | 0.00 | 0.00 | 0.00 | 89 | 1014.4 |
| 20260505021306 | 37 | 63 | 4.0 | 8.0 | 0.00 | 0.00 | 0.00 | 89 | 1014.5 |
| 20260505021036 | 37 | 69 | 4.0 | 10.0 | 0.00 | 0.00 | 0.00 | 89 | 1014.7 |
| 20260505020254 | 37 | 65 | 4.0 | 10.0 | 0.00 | 0.00 | 0.00 | 89 | 1014.7 |
| 20260505020023 | 37 | 24 | 4.0 | 10.0 | 0.00 | 0.00 | 0.00 | 89 | 1014.7 |
| 20260505015239 | 37 | 40 | 5.0 | 10.0 | 0.00 | 0.00 | 0.00 | 88 | 1014.8 |
| 20260505014735 | 37 | 59 | 5.0 | 10.0 | 0.00 | 0.00 | 0.00 | 88 | 1014.8 |
| 20260505014227 | 38 | 49 | 5.0 | 11.0 | 0.00 | 0.00 | 0.00 | 88 | 1014.7 |
| 20260505013726 | 38 | 92 | 5.0 | 11.0 | 0.00 | 0.00 | 0.00 | 87 | 1014.5 |
| 20260505013217 | 38 | 76 | 5.0 | 11.0 | 0.00 | 0.00 | 0.00 | 87 | 1014.3 |
| 20260505012949 | 38 | 19 | 6.0 | 13.0 | 0.00 | 0.00 | 0.00 | 86 | 1014.4 |
| 20260505012440 | 38 | 68 | 6.0 | 14.0 | 0.00 | 0.00 | 0.00 | 85 | 1014.5 |
| 20260505011713 | 38 | 61 | 6.0 | 14.0 | 0.00 | 0.00 | 0.00 | 84 | 1014.5 |
| 20260505011209 | 39 | 67 | 6.0 | 14.0 | 0.00 | 0.00 | 0.00 | 82 | 1014.7 |
| 20260505010949 | 40 | 17 | 6.0 | 14.0 | 0.00 | 0.00 | 0.00 | 80 | 1014.9 |
| 20260505010211 | 40 | 78 | 5.0 | 12.0 | 0.00 | 0.00 | 0.00 | 78 | 1014.9 |
| 20260505005715 | 41 | 63 | 6.0 | 16.0 | 0.00 | 0.00 | 0.00 | 75 | 1014.7 |
| 20260505005210 | 42 | 59 | 7.0 | 16.0 | 0.00 | 0.00 | 0.00 | 72 | 1014.7 |
| 20260505004717 | 43 | 55 | 8.0 | 15.0 | 0.00 | 0.00 | 0.00 | 68 | 1014.4 |
| 20260505004209 | 45 | 15 | 8.0 | 19.0 | 0.00 | 0.00 | 0.00 | 62 | 1014.5 |
| 20260505003714 | 47 | 49 | 7.0 | 19.0 | 0.00 | 0.00 | 0.00 | 57 | 1014.4 |
| 20260505003441 | 49 | 11 | 5.0 | 16.0 | 0.00 | 0.00 | 0.00 | 49 | 1014.0 |
| 20260505002948 | 50 | 0 | 4.0 | 11.0 | 0.00 | 0.00 | 0.00 | 45 | 1014.4 |
| 20260505002208 | 51 | 5 | 4.0 | 10.0 | 0.00 | 0.00 | 0.00 | 43 | 1014.3 |
| 20260505001712 | 51 | 14 | 4.0 | 8.0 | 0.00 | 0.00 | 0.00 | 44 | 1013.5 |
| 20260505001209 | 51 | 22 | 3.0 | 9.0 | 0.00 | 0.00 | 0.00 | 44 | 1013.5 |
| 20260505000716 | 51 | 37 | 3.0 | 9.0 | 0.00 | 0.00 | 0.00 | 42 | 1013.6 |
| 20260505000204 | 52 | 37 | 4.0 | 9.0 | 0.00 | 0.00 | 0.00 | 42 | 1013.5 |
| 20260504235658 | 52 | 66 | 3.0 | 9.0 | 0.00 | 0.00 | 0.00 | 41 | 1013.4 |
| 20260504235152 | 53 | 30 | 1.0 | 5.0 | 0.00 | 0.00 | 0.00 | 40 | 1013.5 |
| 20260504234645 | 53 | 53 | 1.0 | 4.0 | 0.00 | 0.00 | 0.00 | 40 | 1013.4 |
| 20260504234414 | 54 | 102 | 2.0 | 5.0 | 0.00 | 0.00 | 0.00 | 39 | 1013.2 |
| 20260504233634 | 54 | 355 | 3.0 | 9.0 | 0.00 | 0.00 | 0.00 | 39 | 1012.8 |
| 20260504233128 | 55 | 0 | 3.0 | 9.0 | 0.00 | 0.00 | 0.00 | 38 | 1013.1 |
| 20260504232622 | 55 | 72 | 2.0 | 7.0 | 0.00 | 0.00 | 0.00 | 36 | 1013.2 |
| 20260504232116 | 56 | 83 | 1.0 | 5.0 | 0.00 | 0.00 | 0.00 | 35 | 1013.2 |
| 20260504231610 | 56 | 5 | 3.0 | 9.0 | 0.00 | 0.00 | 0.00 | 34 | 1013.4 |
| 20260504231334 | 56 | 51 | 3.0 | 9.0 | 0.00 | 0.00 | 0.00 | 35 | 1013.2 |
| 20260504230558 | 56 | 256 | 2.0 | 8.0 | 0.00 | 0.00 | 0.00 | 36 | 1013.1 |
| 20260504230052 | 56 | 76 | 3.0 | 6.0 | 0.00 | 0.00 | 0.00 | 37 | 1013.1 |
| 20260504225546 | 55 | 225 | 4.0 | 8.0 | 0.00 | 0.00 | 0.00 | 38 | 1013.0 |
| 20260504225039 | 54 | 195 | 5.0 | 8.0 | 0.00 | 0.00 | 0.00 | 37 | 1013.2 |
| 20260504224539 | 55 | 195 | 4.0 | 9.0 | 0.00 | 0.00 | 0.00 | 36 | 1013.2 |
| 20260504224031 | 55 | 232 | 3.0 | 9.0 | 0.00 | 0.00 | 0.00 | 38 | 1013.4 |
| 20260504223758 | 55 | 202 | 4.0 | 7.0 | 0.00 | 0.00 | 0.00 | 40 | 1013.2 |
| 20260504223021 | 54 | 188 | 3.0 | 7.0 | 0.00 | 0.00 | 0.00 | 40 | 1013.4 |
| 20260504222514 | 54 | 197 | 3.0 | 7.0 | 0.00 | 0.00 | 0.00 | 41 | 1013.5 |
| 20260504222004 | 54 | 275 | 4.0 | 8.0 | 0.00 | 0.00 | 0.00 | 41 | 1013.8 |
| 20260504221728 | 54 | 184 | 4.0 | 8.0 | 0.00 | 0.00 | 0.00 | 41 | 1013.8 |
| 20260504220952 | 54 | 246 | 4.0 | 14.0 | 0.00 | 0.00 | 0.00 | 41 | 1013.8 |
| 20260504220446 | 54 | 282 | 6.0 | 14.0 | 0.00 | 0.00 | 0.00 | 41 | 1013.6 |
| 20260504215940 | 53 | 212 | 9.0 | 14.0 | 0.00 | 0.00 | 0.00 | 40 | 1013.8 |
| 20260504215705 | 53 | 234 | 9.0 | 15.0 | 0.00 | 0.00 | 0.00 | 37 | 1013.8 |
| 20260504214928 | 53 | 265 | 10.0 | 19.0 | 0.00 | 0.00 | 0.00 | 38 | 1013.8 |
| 20260504214421 | 53 | 244 | 10.0 | 19.0 | 0.00 | 0.00 | 0.00 | 36 | 1013.5 |
| 20260504213916 | 53 | 185 | 9.0 | 18.0 | 0.00 | 0.00 | 0.00 | 37 | 1013.6 |
| 20260504213410 | 53 | 263 | 7.0 | 15.0 | 0.00 | 0.00 | 0.00 | 37 | 1013.6 |
| 20260504212904 | 54 | 200 | 6.0 | 14.0 | 0.00 | 0.00 | 0.00 | 37 | 1013.8 |
| 20260504212631 | 55 | 247 | 4.0 | 12.0 | 0.00 | 0.00 | 0.00 | 36 | 1013.6 |
| 20260504211851 | 55 | 257 | 4.0 | 10.0 | 0.00 | 0.00 | 0.00 | 35 | 1013.6 |
| 20260504211345 | 55 | 217 | 4.0 | 11.0 | 0.00 | 0.00 | 0.00 | 35 | 1013.8 |
| 20260504210840 | 55 | 270 | 5.0 | 11.0 | 0.00 | 0.00 | 0.00 | 35 | 1013.9 |
| 20260504210339 | 55 | 257 | 5.0 | 11.0 | 0.00 | 0.00 | 0.00 | 35 | 1013.8 |
| 20260504205840 | 55 | 236 | 3.0 | 11.0 | 0.00 | 0.00 | 0.00 | 34 | 1013.8 |
| 20260504205337 | 56 | 248 | 3.0 | 10.0 | 0.00 | 0.00 | 0.00 | 37 | 1013.9 |
| 20260504204838 | 56 | 281 | 3.0 | 8.0 | 0.00 | 0.00 | 0.00 | 33 | 1013.8 |
| 20260504204337 | 56 | 311 | 2.0 | 8.0 | 0.00 | 0.00 | 0.00 | 30 | 1013.8 |
| 20260504203836 | 57 | 18 | 2.0 | 10.0 | 0.00 | 0.00 | 0.00 | 28 | 1013.6 |
| 20260504203605 | 57 | 57 | 3.0 | 10.0 | 0.00 | 0.00 | 0.00 | 28 | 1013.8 |
| 20260504202832 | 58 | 208 | 3.0 | 10.0 | 0.00 | 0.00 | 0.00 | 28 | 1013.8 |
| 20260504202332 | 58 | 201 | 2.0 | 10.0 | 0.00 | 0.00 | 0.00 | 29 | 1013.8 |
| 20260504201833 | 58 | 215 | 2.0 | 9.0 | 0.00 | 0.00 | 0.00 | 28 | 1013.8 |
| 20260504201330 | 58 | 112 | 3.0 | 10.0 | 0.00 | 0.00 | 0.00 | 28 | 1013.8 |
| 20260504200831 | 58 | 216 | 4.0 | 15.0 | 0.00 | 0.00 | 0.00 | 28 | 1013.8 |
| 20260504200329 | 58 | 223 | 5.0 | 15.0 | 0.00 | 0.00 | 0.00 | 27 | 1013.9 |
| 20260504195827 | 58 | 240 | 6.0 | 15.0 | 0.00 | 0.00 | 0.00 | 27 | 1013.8 |
| 20260504195327 | 58 | 232 | 5.0 | 15.0 | 0.00 | 0.00 | 0.00 | 28 | 1013.8 |
| 20260504194828 | 57 | 243 | 3.0 | 10.0 | 0.00 | 0.00 | 0.00 | 30 | 1013.9 |
| 20260504194329 | 55 | 281 | 3.0 | 8.0 | 0.00 | 0.00 | 0.00 | 31 | 1014.0 |
| 20260504193828 | 56 | 9 | 4.0 | 11.0 | 0.00 | 0.00 | 0.00 | 30 | 1014.1 |
| 20260504193323 | 55 | 103 | 2.0 | 11.0 | 0.00 | 0.00 | 0.00 | 35 | 1014.3 |
| 20260504193055 | 54 | 22 | 3.0 | 11.0 | 0.00 | 0.00 | 0.00 | 32 | 1014.4 |
| 20260504192323 | 55 | 154 | 6.0 | 15.0 | 0.00 | 0.00 | 0.00 | 30 | 1014.4 |
| 20260504191823 | 55 | 261 | 6.0 | 15.0 | 0.00 | 0.00 | 0.00 | 31 | 1014.5 |
| 20260504191323 | 55 | 202 | 7.0 | 16.0 | 0.00 | 0.00 | 0.00 | 30 | 1014.5 |
| 20260504190825 | 56 | 250 | 8.0 | 16.0 | 0.00 | 0.00 | 0.00 | 29 | 1014.7 |
| 20260504190326 | 57 | 253 | 8.0 | 19.0 | 0.00 | 0.00 | 0.00 | 29 | 1014.4 |
| 20260504185824 | 58 | 236 | 8.0 | 19.0 | 0.00 | 0.00 | 0.00 | 28 | 1014.4 |
| 20260504185325 | 59 | 216 | 7.0 | 15.0 | 0.00 | 0.00 | 0.00 | 27 | 1014.4 |
| 20260504184822 | 59 | 198 | 7.0 | 15.0 | 0.00 | 0.00 | 0.00 | 28 | 1014.4 |
| 20260504184321 | 59 | 239 | 7.0 | 15.0 | 0.00 | 0.00 | 0.00 | 29 | 1014.5 |
| 20260504184053 | 58 | 215 | 6.0 | 15.0 | 0.00 | 0.00 | 0.00 | 30 | 1014.7 |
| 20260504183556 | 57 | 188 | 8.0 | 16.0 | 0.00 | 0.00 | 0.00 | 28 | 1014.7 |
| 20260504183052 | 58 | 240 | 9.0 | 19.0 | 0.00 | 0.00 | 0.00 | 27 | 1014.8 |
| 20260504182321 | 58 | 196 | 9.0 | 22.0 | 0.00 | 0.00 | 0.00 | 27 | 1014.9 |
| 20260504181822 | 59 | 191 | 9.0 | 22.0 | 0.00 | 0.00 | 0.00 | 27 | 1015.2 |
| 20260504181323 | 59 | 185 | 9.0 | 22.0 | 0.00 | 0.00 | 0.00 | 28 | 1015.2 |
| 20260504180822 | 58 | 255 | 8.0 | 22.0 | 0.00 | 0.00 | 0.00 | 27 | 1015.2 |
| 20260504180321 | 58 | 227 | 9.0 | 18.0 | 0.00 | 0.00 | 0.00 | 29 | 1015.3 |
| 20260504180053 | 57 | 203 | 10.0 | 18.0 | 0.00 | 0.00 | 0.00 | 29 | 1015.3 |
| 20260504175321 | 58 | 186 | 8.0 | 19.0 | 0.00 | 0.00 | 0.00 | 28 | 1015.2 |
| 20260504174822 | 58 | 205 | 7.0 | 19.0 | 0.00 | 0.00 | 0.00 | 29 | 1015.3 |
| 20260504174554 | 57 | 205 | 9.0 | 20.0 | 0.00 | 0.00 | 0.00 | 31 | 1015.5 |
| 20260504173820 | 56 | 232 | 9.0 | 20.0 | 0.00 | 0.00 | 0.00 | 31 | 1015.6 |
| 20260504173318 | 57 | 194 | 9.0 | 14.0 | 0.00 | 0.00 | 0.00 | 28 | 1015.7 |
| 20260504172820 | 57 | 225 | 9.0 | 15.0 | 0.00 | 0.00 | 0.00 | 29 | 1015.9 |
| 20260504172319 | 57 | 272 | 8.0 | 15.0 | 0.00 | 0.00 | 0.00 | 28 | 1015.9 |
| 20260504171820 | 57 | 258 | 7.0 | 18.0 | 0.00 | 0.00 | 0.00 | 28 | 1015.9 |
| 20260504171320 | 57 | 240 | 6.0 | 18.0 | 0.00 | 0.00 | 0.00 | 26 | 1016.1 |
| 20260504170819 | 57 | 212 | 4.0 | 16.0 | 0.00 | 0.00 | 0.00 | 31 | 1016.0 |
| 20260504170319 | 56 | 199 | 4.0 | 12.0 | 0.00 | 0.00 | 0.00 | 32 | 1016.1 |
| 20260504160217 | 53 | 234 | 7.0 | 14.0 | 0.00 | 0.00 | 0.00 | 39 | 1016.8 |
| 20260504151118 | 50 | 221 | 6.0 | 14.0 | 0.00 | 0.00 | 0.00 | 47 | 1017.2 |
| 20260504150611 | 49 | 249 | 7.0 | 14.0 | 0.00 | 0.00 | 0.00 | 47 | 1017.3 |
| 20260504141005 | 42 | 248 | 7.0 | 12.0 | 0.00 | 0.00 | 0.00 | 58 | 1017.3 |
| 20260504140459 | 41 | 258 | 6.0 | 12.0 | 0.00 | 0.00 | 0.00 | 62 | 1017.2 |
| 20260504140224 | 39 | 244 | 4.0 | 9.0 | 0.00 | 0.00 | 0.00 | 64 | 1017.2 |
| 20260504130347 | 33 | 51 | 0.0 | 0.0 | 0.00 | 0.00 | 0.00 | 77 | 1016.6 |
| 20260504120235 | 29 | 51 | 0.0 | 0.0 | 0.00 | 0.00 | 0.00 | 76 | 1016.8 |
| 20260504110639 | 30 | 51 | 0.0 | 0.0 | 0.00 | 0.00 | 0.00 | 75 | 1016.6 |
| 20260504110410 | 30 | 51 | 0.0 | 0.0 | 0.00 | 0.00 | 0.00 | 75 | 1016.6 |
| 20260504100135 | 30 | 51 | 0.0 | 0.0 | 0.00 | 0.00 | 0.00 | 72 | 1016.8 |
| 20260504081610 | 30 | 51 | 0.0 | 0.0 | 0.00 | 0.00 | 0.00 | 69 | 1017.6 |
| 20260504081106 | 31 | 51 | 0.0 | 0.0 | 0.00 | 0.00 | 0.00 | 68 | 1017.6 |
| 20260504080559 | 31 | 51 | 0.0 | 0.0 | 0.00 | 0.00 | 0.00 | 68 | 1017.7 |